シャルネツキー彗星

C/2024 N3 ( Sarneczky )

English version
Home page
Updated on May 3, 2025

---------------------------------------------------------------------

・ プロフィール

発見日 2024年7月8日
発見光度 19.6等
発見者 Krisztian Sarneczky (Piszkesteto Observatory in Hungary)

・ 写真集

・ 軌道要素

Epoch 2025 May 5.0 TT = JDT 2460800.5
T 2025 Apr. 11.42375 TT                                 Payne
q   5.0145652            (2000.0)            P               Q
z  -0.0002574      Peri.   86.88347     -0.01497164     -0.12965112
 +/-0.0000024      Node    82.60868     -0.34501069     -0.92999095
e   1.0012910      Incl.   88.72893     +0.93847934     -0.34395846
From 266 observations 2023 Oct. 9-2025 Apr. 28, mean residual 0".5.

・ 光度変化

        m1 = 0.5 + 5 logΔ + 20.0 log r

---------------------------------------------------------------------

軌道要素はM.P.E.C. 2025-J08に掲載されたものです。
光度グラフはComet for Windowsで作成したものです。

---------------------------------------------------------------------

Copyright(C) Seiichi Yoshida (comet@aerith.net). All rights reserved.